SCP
0 0 0 0 0 0 0 0 0 0 0 -0 0 -0 0 -0 -0 0 0 0 -0 -0 -0 -0 0 0 0 0 0 0 0 0 0 0 0 0 0 0
0 0 0 0 0 0 0 0 0 0 0 0 -0 0 0 0 -0 0 0 -0 -0 0 0 -0 0 0 0 0 0 0 0 0 0 0 0 0 0 0
0 0 0 0 0 0 0 0 0 0 0 0 0 -0 -0 -0 0 0 0 0 0 0 0 0 0 0 0 0 0 0 0 0 0 0 0 0 0 0
0 0 0 -0 0 0 0 0 0 0 0 0 0 -0 -0 -0 -0 0 -0 -0 0 0 0 0 0 0 0 0 0 0 0 0 0 0 0 0 0 0
-0 -0 0 0 0 0 0 0 0 0 0 0 0 0 0 -0 0 -0 0 0 0 0 0 0 0 0 0 0 0 0 0 0 0 0 0 0 0 0
-0 -0 0 0 0 0 0 0 0 0 0 0 0 0 0 0 0 0 0 0 0 0 0 0 0 0 0 0 0 0 0 0 0 0 0 0 0 0
-0 0 -0 -0 0 0 0 0 0 0 0 0 0 0 0 0 1 0 0 0 0 0 0 0 1 0 0 0 0 0 0 0 0 0 0 0 0 0
-0 -0 0 0 -0 -0 0 -0 0 0 0 0 0 1 1 1 0 0 0 0 0 1 1 0 0 1 2 1 0 0 0 0 0 0 0 0 0 0
-0 -0 0 0 0 0 -0 -0 -0 -0 -0 0 0 0 1 1 1 1 1 1 0 0 0 0 0 1 2 0 0 0 0 0 0 0 0 0 0 0
-0 -0 0 0 0 0 0 0 0 0 0 0 0 0 0 0 0 0 1 1 0 0 0 0 0 0 2 1 0 0 0 0 0 0 0 0 0 0
0 0 0 0 0 1 0 0 0 0 0 0 0 -0 -0 -0 0 -0 0 0 0 0 0 0 0 0 2 1 0 0 0 0 0 0 0 0 0 0
0 0 0 0 1 1 1 1 1 1 0 0 0 0 -0 0 0 0 0 0 0 0 0 0 0 0 0 2 2 0 0 0 0 0 0 0 0 0
0 0 0 0 0 0 0 1 1 1 0 0 0 0 0 0 1 1 1 0 0 0 0 1 0 0 1 1 2 1 0 0 0 0 0 0 0 0
1 0 1 0 0 0 0 0 0 0 0 0 0 0 0 0 0 1 2 2 1 1 1 3 1 1 1 1 1 3 2 1 0 0 0 0 0 0
1 1 1 0 0 0 0 0 0 0 0 0 0 0 0 0 1 1 3 4 2 2 2 2 2 2 1 1 1 2 2 1 0 0 0 0 0 0
0 0 0 0 0 0 0 0 0 0 0 0 0 0 0 0 0 0 1 1 1 1 2 2 3 3 2 1 2 2 2 2 1 0 0 0 0 0
0 1 1 1 1 1 1 1 1 1 1 1 1 1 0 0 0 0 0 1 1 1 1 1 4 3 3 3 3 3 2 2 1 1 0 0 0 0
1 1 1 1 1 1 1 1 1 1 1 1 1 1 1 0 0 0 0 1 1 1 1 1 4 3 2 2 1 2 3 2 4 1 0 0 0 0
1 1 1 1 1 1 1 1 1 1 2 1 1 1 1 1 0 0 0 1 1 1 1 1 2 4 3 2 2 0 1 3 1 1 0 0 0 0
1 1 1 1 1 1 1 1 1 1 1 1 1 1 1 1 1 1 1 1 1 1 2 3 5 4 5 3 2 3 0 1 1 0 0 0 0 0
1 1 1 1 1 2 2 2 2 2 2 1 1 1 1 1 1 1 1 1 1 1 3 3 3 2 2 3 3 3 0 0 0 0 0 0 0 0
2 2 2 1 1 2 2 2 3 3 3 2 2 2 2 2 2 1 1 1 2 2 3 3 4 2 2 2 2 2 1 0 0 0 0 0 0 0
2 2 2 3 3 2 3 3 3 2 3 3 3 3 3 2 2 2 3 3 3 3 3 3 1 1 1 1 1 1 0 0 0 0 0 0 0 0
Wind_Speed_500mb
15 15 12 11 6 3 2 3 1 3 3 2 2 11 11 15 26 30 27 36 32 35 41 42 45 40 40 36 32 28 23 20 19 23 27 23 27 27
20 22 21 16 13 10 7 7 5 6 11 7 10 15 17 17 24 32 31 37 39 44 40 44 43 40 38 36 32 29 24 18 19 25 23 28 26 27
24 24 25 25 18 17 15 14 13 14 16 17 17 19 27 23 27 31 27 27 26 41 41 44 38 36 34 34 32 28 25 19 26 23 29 29 29 30
23 25 26 25 31 29 21 23 20 21 21 24 24 22 23 27 28 32 28 24 29 30 43 47 38 33 33 31 30 31 27 25 23 27 32 32 36 37
23 24 25 26 30 26 26 23 20 20 23 23 26 23 24 25 25 27 30 28 25 35 34 42 41 37 30 30 28 29 32 27 27 34 33 36 38 41
30 28 27 29 28 27 27 26 25 25 26 28 27 27 26 25 26 26 29 29 29 30 25 28 40 43 35 31 29 31 32 31 28 35 37 39 42 45
32 33 31 32 34 31 28 28 28 27 27 29 31 29 28 26 26 29 31 31 32 27 25 24 32 42 42 33 30 32 34 34 28 36 39 41 45 47
37 37 37 36 32 32 34 36 39 37 36 36 35 35 37 33 30 31 32 34 35 25 31 33 26 28 26 23 32 33 34 33 33 36 39 42 46 49
44 44 43 42 44 42 41 39 40 41 43 45 46 45 44 38 35 34 33 35 34 34 38 36 28 30 34 40 32 32 34 36 36 37 40 42 45 46
55 50 50 51 50 47 44 42 43 43 45 47 53 52 49 45 43 36 38 41 37 31 29 36 28 31 28 37 34 30 28 33 38 39 40 41 43 45
79 76 67 62 63 62 57 50 49 48 45 51 53 53 54 48 48 45 41 39 41 35 30 35 33 29 36 31 44 24 27 34 36 38 37 40 41 45
78 84 91 88 81 77 74 71 69 64 51 47 50 58 58 56 51 53 52 45 44 43 32 33 29 30 37 30 25 50 38 36 34 34 34 36 38 40
68 70 72 79 84 86 87 84 84 71 58 56 54 54 53 50 46 48 57 58 49 49 40 40 39 36 36 41 41 32 36 42 33 33 31 31 35 38
77 68 67 72 77 78 77 81 83 81 69 63 62 60 56 53 51 51 54 60 52 56 53 53 49 42 41 44 43 40 44 27 29 29 28 38 35 33
78 69 70 72 72 75 78 77 71 72 74 69 70 67 60 57 56 56 55 56 59 59 58 59 54 48 44 47 46 43 34 31 28 32 29 33 36 37
83 81 79 77 72 69 71 75 77 77 70 65 65 64 60 56 56 53 55 52 50 47 49 53 55 52 49 49 46 46 43 30 30 29 31 33 40 38
76 79 74 69 68 65 62 61 57 63 78 70 62 61 60 57 58 55 56 55 54 51 50 48 55 52 51 53 57 57 52 40 33 29 35 30 25 34
56 60 64 64 66 61 60 59 58 63 59 54 57 59 62 61 59 57 56 58 58 54 52 48 50 50 56 59 57 58 51 37 36 44 45 34 27 24
64 66 60 67 67 62 62 62 64 59 57 58 59 57 57 60 59 61 60 61 63 60 57 52 53 61 59 51 37 43 42 43 37 35 32 28 25 20
64 69 70 61 65 66 62 62 58 55 56 58 58 57 56 57 57 59 59 62 63 63 63 61 65 63 65 59 46 41 42 36 41 38 30 26 29 39
74 72 79 74 69 71 69 64 61 61 61 60 59 61 56 53 57 58 59 63 64 62 67 64 69 63 63 56 56 40 50 51 51 41 35 32 29 24
71 70 71 66 80 80 69 67 67 70 72 71 68 62 70 71 62 60 59 59 62 62 65 58 60 65 66 63 52 45 59 55 49 48 45 39 34 23
72 72 72 79 77 71 71 75 76 71 73 74 73 70 66 71 73 72 73 70 67 61 51 62 58 61 62 56 56 41 49 54 46 42 42 42 42 42
Wind_Direction_500mb
223 218 187 215 223 243 338 51 35 275 178 290 226 311 333 330 314 334 335 331 342 343 341 345 348 355 357 1 359 351 351 351 359 353 351 359 349 348
213 224 207 220 233 246 254 271 283 269 279 275 279 300 305 309 309 326 333 343 337 333 337 343 348 354 356 358 358 353 357 358 349 345 355 355 359 352
218 225 226 227 226 241 250 256 262 271 272 273 291 303 309 311 312 319 329 341 323 318 333 338 345 350 353 353 354 351 355 353 345 354 351 357 357 355
227 225 231 233 238 235 245 251 251 256 266 277 281 293 298 302 310 319 316 320 313 317 328 339 345 344 351 353 354 358 356 356 358 351 353 355 356 354
229 231 232 233 235 230 244 245 260 268 270 277 277 284 285 297 298 316 315 319 332 313 333 328 329 340 345 348 350 353 1 357 356 355 356 355 354 353
234 235 235 232 235 241 241 248 251 252 264 273 275 279 286 288 299 309 309 310 313 321 311 325 321 335 339 346 350 351 350 351 352 356 352 351 351 353
237 238 238 235 238 236 235 252 245 257 261 264 270 275 278 282 279 299 301 306 313 315 311 332 322 322 317 331 340 337 339 344 341 348 348 346 349 353
240 241 240 245 240 242 247 245 244 248 254 254 261 267 271 282 290 292 289 296 299 303 302 311 316 295 277 303 328 326 328 335 333 338 342 344 347 353
243 243 242 245 253 251 252 252 253 254 259 264 263 263 267 274 280 282 286 283 284 287 298 300 305 298 290 289 307 312 319 324 326 328 337 343 346 350
244 245 244 239 238 244 246 248 253 255 258 260 266 274 277 280 278 276 278 284 291 297 296 293 300 303 286 279 297 308 314 320 316 322 329 337 342 346
247 247 245 246 247 248 249 246 248 250 257 269 272 274 276 273 267 266 265 273 279 282 283 285 291 296 292 280 294 301 310 314 309 316 323 331 337 341
251 252 253 251 251 253 253 254 254 253 254 256 264 269 271 270 264 259 264 262 270 279 283 278 285 289 296 287 262 298 305 309 305 311 315 322 332 339
244 246 248 252 253 251 253 254 255 258 257 259 260 262 264 265 269 264 258 258 262 270 275 273 275 280 279 283 292 284 293 311 304 308 311 317 325 331
241 246 249 251 256 259 256 254 256 258 256 254 255 257 259 259 259 259 262 270 264 265 269 262 264 265 272 279 286 280 286 274 285 297 298 310 315 323
243 244 246 248 254 258 258 257 254 252 250 248 250 252 252 256 257 257 257 255 263 268 269 271 262 259 264 269 275 265 274 277 269 292 294 296 304 315
247 248 247 249 249 252 257 257 250 246 243 245 247 251 253 253 254 256 256 256 262 267 275 276 274 260 256 258 263 269 270 256 269 268 287 287 298 303
244 247 248 248 248 247 247 242 246 245 243 243 243 247 249 249 250 251 252 257 257 260 262 264 269 268 267 264 264 269 273 261 250 255 278 281 279 287
252 242 240 243 242 243 242 241 241 239 240 243 243 244 245 245 248 249 250 251 254 256 257 259 259 259 264 263 259 262 268 246 249 255 265 268 272 274
246 242 244 241 244 243 243 242 239 239 241 239 240 242 243 245 245 246 248 251 251 252 252 254 253 250 244 251 262 272 261 249 240 244 253 258 264 263
245 244 240 243 244 245 242 243 246 245 242 242 243 242 241 243 245 246 247 249 251 254 256 254 247 243 241 248 261 258 259 237 233 232 240 251 253 272
245 243 242 239 245 245 246 244 243 244 243 240 243 243 243 245 247 246 247 249 250 253 254 251 256 263 263 257 256 238 245 242 224 234 236 235 244 261
245 244 244 247 251 250 253 250 248 251 256 256 254 249 253 245 244 248 248 251 253 251 251 253 252 263 265 250 243 236 236 245 240 240 245 246 239 240
252 251 257 255 259 266 263 259 256 255 256 257 260 263 263 262 257 257 258 260 253 249 246 253 261 255 238 251 237 229 223 232 243 240 248 253 249 250
Wind_Speed_850mb
15 15 12 11 6 3 2 3 1 3 3 2 2 11 11 15 26 30 27 36 32 35 41 42 45 40 40 36 32 28 23 20 19 23 27 23 27 27
20 22 21 16 13 10 7 7 5 6 11 7 10 15 17 17 24 32 31 37 39 44 40 44 43 40 38 36 32 29 24 18 19 25 23 28 26 27
24 24 25 25 18 17 15 14 13 14 16 17 17 19 27 23 27 31 27 27 26 41 41 44 38 36 34 34 32 28 25 19 26 23 29 29 29 30
23 25 26 25 31 29 21 23 20 21 21 24 24 22 23 27 28 32 28 24 29 30 43 47 38 33 33 31 30 31 27 25 23 27 32 32 36 37
23 24 25 26 30 26 26 23 20 20 23 23 26 23 24 25 25 27 30 28 25 35 34 42 41 37 30 30 28 29 32 27 27 34 33 36 38 41
30 28 27 29 28 27 27 26 25 25 26 28 27 27 26 25 26 26 29 29 29 30 25 28 40 43 35 31 29 31 32 31 28 35 37 39 42 45
32 33 31 32 34 31 28 28 28 27 27 29 31 29 28 26 26 29 31 31 32 27 25 24 32 42 42 33 30 32 34 34 28 36 39 41 45 47
37 37 37 36 32 32 34 36 39 37 36 36 35 35 37 33 30 31 32 34 35 25 31 33 26 28 26 23 32 33 34 33 33 36 39 42 46 49
44 44 43 42 44 42 41 39 40 41 43 45 46 45 44 38 35 34 33 35 34 34 38 36 28 30 34 40 32 32 34 36 36 37 40 42 45 46
55 50 50 51 50 47 44 42 43 43 45 47 53 52 49 45 43 36 38 41 37 31 29 36 28 31 28 37 34 30 28 33 38 39 40 41 43 45
79 76 67 62 63 62 57 50 49 48 45 51 53 53 54 48 48 45 41 39 41 35 30 35 33 29 36 31 44 24 27 34 36 38 37 40 41 45
78 84 91 88 81 77 74 71 69 64 51 47 50 58 58 56 51 53 52 45 44 43 32 33 29 30 37 30 25 50 38 36 34 34 34 36 38 40
68 70 72 79 84 86 87 84 84 71 58 56 54 54 53 50 46 48 57 58 49 49 40 40 39 36 36 41 41 32 36 42 33 33 31 31 35 38
77 68 67 72 77 78 77 81 83 81 69 63 62 60 56 53 51 51 54 60 52 56 53 53 49 42 41 44 43 40 44 27 29 29 28 38 35 33
78 69 70 72 72 75 78 77 71 72 74 69 70 67 60 57 56 56 55 56 59 59 58 59 54 48 44 47 46 43 34 31 28 32 29 33 36 37
83 81 79 77 72 69 71 75 77 77 70 65 65 64 60 56 56 53 55 52 50 47 49 53 55 52 49 49 46 46 43 30 30 29 31 33 40 38
76 79 74 69 68 65 62 61 57 63 78 70 62 61 60 57 58 55 56 55 54 51 50 48 55 52 51 53 57 57 52 40 33 29 35 30 25 34
56 60 64 64 66 61 60 59 58 63 59 54 57 59 62 61 59 57 56 58 58 54 52 48 50 50 56 59 57 58 51 37 36 44 45 34 27 24
64 66 60 67 67 62 62 62 64 59 57 58 59 57 57 60 59 61 60 61 63 60 57 52 53 61 59 51 37 43 42 43 37 35 32 28 25 20
64 69 70 61 65 66 62 62 58 55 56 58 58 57 56 57 57 59 59 62 63 63 63 61 65 63 65 59 46 41 42 36 41 38 30 26 29 39
74 72 79 74 69 71 69 64 61 61 61 60 59 61 56 53 57 58 59 63 64 62 67 64 69 63 63 56 56 40 50 51 51 41 35 32 29 24
71 70 71 66 80 80 69 67 67 70 72 71 68 62 70 71 62 60 59 59 62 62 65 58 60 65 66 63 52 45 59 55 49 48 45 39 34 23
72 72 72 79 77 71 71 75 76 71 73 74 73 70 66 71 73 72 73 70 67 61 51 62 58 61 62 56 56 41 49 54 46 42 42 42 42 42
Wind_Direction_850mb
223 218 187 215 223 243 338 51 35 275 178 290 226 311 333 330 314 334 335 331 342 343 341 345 348 355 357 1 359 351 351 351 359 353 351 359 349 348
213 224 207 220 233 246 254 271 283 269 279 275 279 300 305 309 309 326 333 343 337 333 337 343 348 354 356 358 358 353 357 358 349 345 355 355 359 352
218 225 226 227 226 241 250 256 262 271 272 273 291 303 309 311 312 319 329 341 323 318 333 338 345 350 353 353 354 351 355 353 345 354 351 357 357 355
227 225 231 233 238 235 245 251 251 256 266 277 281 293 298 302 310 319 316 320 313 317 328 339 345 344 351 353 354 358 356 356 358 351 353 355 356 354
229 231 232 233 235 230 244 245 260 268 270 277 277 284 285 297 298 316 315 319 332 313 333 328 329 340 345 348 350 353 1 357 356 355 356 355 354 353
234 235 235 232 235 241 241 248 251 252 264 273 275 279 286 288 299 309 309 310 313 321 311 325 321 335 339 346 350 351 350 351 352 356 352 351 351 353
237 238 238 235 238 236 235 252 245 257 261 264 270 275 278 282 279 299 301 306 313 315 311 332 322 322 317 331 340 337 339 344 341 348 348 346 349 353
240 241 240 245 240 242 247 245 244 248 254 254 261 267 271 282 290 292 289 296 299 303 302 311 316 295 277 303 328 326 328 335 333 338 342 344 347 353
243 243 242 245 253 251 252 252 253 254 259 264 263 263 267 274 280 282 286 283 284 287 298 300 305 298 290 289 307 312 319 324 326 328 337 343 346 350
244 245 244 239 238 244 246 248 253 255 258 260 266 274 277 280 278 276 278 284 291 297 296 293 300 303 286 279 297 308 314 320 316 322 329 337 342 346
247 247 245 246 247 248 249 246 248 250 257 269 272 274 276 273 267 266 265 273 279 282 283 285 291 296 292 280 294 301 310 314 309 316 323 331 337 341
251 252 253 251 251 253 253 254 254 253 254 256 264 269 271 270 264 259 264 262 270 279 283 278 285 289 296 287 262 298 305 309 305 311 315 322 332 339
244 246 248 252 253 251 253 254 255 258 257 259 260 262 264 265 269 264 258 258 262 270 275 273 275 280 279 283 292 284 293 311 304 308 311 317 325 331
241 246 249 251 256 259 256 254 256 258 256 254 255 257 259 259 259 259 262 270 264 265 269 262 264 265 272 279 286 280 286 274 285 297 298 310 315 323
243 244 246 248 254 258 258 257 254 252 250 248 250 252 252 256 257 257 257 255 263 268 269 271 262 259 264 269 275 265 274 277 269 292 294 296 304 315
247 248 247 249 249 252 257 257 250 246 243 245 247 251 253 253 254 256 256 256 262 267 275 276 274 260 256 258 263 269 270 256 269 268 287 287 298 303
244 247 248 248 248 247 247 242 246 245 243 243 243 247 249 249 250 251 252 257 257 260 262 264 269 268 267 264 264 269 273 261 250 255 278 281 279 287
252 242 240 243 242 243 242 241 241 239 240 243 243 244 245 245 248 249 250 251 254 256 257 259 259 259 264 263 259 262 268 246 249 255 265 268 272 274
246 242 244 241 244 243 243 242 239 239 241 239 240 242 243 245 245 246 248 251 251 252 252 254 253 250 244 251 262 272 261 249 240 244 253 258 264 263
245 244 240 243 244 245 242 243 246 245 242 242 243 242 241 243 245 246 247 249 251 254 256 254 247 243 241 248 261 258 259 237 233 232 240 251 253 272
245 243 242 239 245 245 246 244 243 244 243 240 243 243 243 245 247 246 247 249 250 253 254 251 256 263 263 257 256 238 245 242 224 234 236 235 244 261
245 244 244 247 251 250 253 250 248 251 256 256 254 249 253 245 244 248 248 251 253 251 251 253 252 263 265 250 243 236 236 245 240 240 245 246 239 240
252 251 257 255 259 266 263 259 256 255 256 257 260 263 263 262 257 257 258 260 253 249 246 253 261 255 238 251 237 229 223 232 243 240 248 253 249 250